Location: Biskupice Okr?cie
(50.7098°N, 19.2732°E)
Time: 21:58:15
(UTC+00:00)

Daily predictions for brighter satellites

Satellite Brightness Start Highest point End
(mag) Time Altitude Azimuth Time Altitude Azimuth Time Altitude Azimuth
SPOT 1/Viking Rocket 3.5 16:19:06 10° SSE 16:24:10 66° ENE 16:29:15 10° N
UNK 3.7 16:19:59 10° NNE 16:24:35 87° ESE 16:29:09 10° SSW
Cosmos 2233 Rocket 4.3 16:18:52 10° N 16:24:54 47° ENE 16:30:56 10° SE
USA 306 1.6 16:24:55 10° WNW 16:28:09 67° NNE 16:30:21 10° ESE
Cosmos 2360 Rocket 4.0 16:24:20 10° NW 16:29:30 38° WSW 16:34:38 10° S
Cosmos 1725 Rocket 4.0 16:23:38 10° N 16:29:53 70° ENE 16:36:08 10° SSE
Cosmos 1833 4.3 16:24:47 10° SSW 16:30:35 90° NNW 16:36:25 10° NNE
SJ-6B 4.2 16:32:56 10° E 16:34:53 14° ENE 16:36:50 10° NNE
ATLAS 2AS CENTAUR R/B 3.5 16:29:04 10° WSW 16:35:46 49° NNW 16:42:22 10° NE
SL-08 R/B 4.5 16:30:35 10° N 16:36:45 63° ENE 16:42:47 10° SSE
CZ-2D R/B 3.7 16:34:00 10° SE 16:37:42 43° ENE 16:41:30 10° N
Cosmos 1674 Rocket 4.1 16:33:52 10° SSE 16:37:54 37° E 16:41:59 10° NNE
Meteor 2-16 Rocket 4.4 16:32:00 10° S 16:38:04 81° E 16:44:11 10° NNE
CZ-2D R/B 3.3 16:36:17 10° S 16:39:19 61° WSW 16:42:22 10° NNW
SL-16 R/B 3.5 16:33:49 10° N 16:39:44 49° WNW 16:45:39 10° SW
Cosmos 2061 Rocket 4.2 16:33:30 10° N 16:39:46 52° ENE 16:45:55 10° SSE
Cosmos 1315 Rocket 2.6 16:37:10 10° N 16:40:55 60° ENE 16:44:41 10° SSE
Cosmos 1867 3.7 16:35:36 10° SSW 16:40:57 63° SE 16:46:21 10° NE
CZ-4C R/B 2.3 16:42:21 10° S 16:46:14 37° ESE 16:51:03 10° NE
Radarsat Rocket 4.0 16:40:31 10° SE 16:46:15 60° ENE 16:52:25 10° NNW
Meteor 2-1 Rocket 4.4 16:42:30 10° N 16:48:11 55° ENE 16:53:56 10° SSE
Lacrosse 5 rocket 0.8 16:48:28 10° SW 16:51:56 82° SE 16:54:54 14° ENE
NOSS 0 Rocket 3.9 16:46:13 10° NNW 16:52:28 68° NE 16:58:41 10° SE
Cosmos 2151 Rocket 3.5 16:48:52 10° N 16:53:23 71° E 16:57:51 10° SSE
SAR-Lupe-1 4.1 16:49:51 10° SSE 16:53:25 82° WSW 16:57:02 10° NNW
Meteor 1-21 Rocket 4.4 16:49:35 10° SSW 16:55:30 84° WNW 17:01:29 10° NNE
Cosmos 2082 Rocket 4.5 16:54:04 10° WNW 16:57:40 17° NNW 17:01:18 10° N
Meteor 1-31 Rocket 4.4 16:58:59 14° NE 16:58:59 14° NE 17:00:19 10° NNE
CARTOSAT-1 3.6 16:54:58 10° SE 16:59:01 51° ENE 17:03:07 10° N
USA 267 3.4 16:54:28 11° ENE 17:00:52 72° NNW 17:07:23 10° WSW
Cosmos 1356 Rocket 3.2 16:58:54 10° NNW 17:02:50 87° E 17:06:48 10° SSE
Cosmos 1607 3.9 16:57:40 10° SSW 17:03:42 64° SE 17:09:49 10° NE
Cosmos 2297 Rocket 3.0 17:01:24 10° SSE 17:06:15 30° ESE 17:10:46 12° NE
USA 290 2.1 17:03:46 10° SSW 17:06:57 89° ESE 17:10:10 10° NNE
Cosmos 1814 Rocket 4.0 17:04:44 10° SSW 17:10:02 87° ESE 17:15:18 10° NNE
Cosmos 1125 Rocket 3.4 17:08:06 10° NNW 17:13:18 72° ENE 17:18:29 10° SSE
Cosmos 1455 Rocket 3.4 17:09:51 10° N 17:13:54 39° ENE 17:17:56 10° SE
Meteor 1-27 4.4 17:13:45 10° N 17:19:22 50° ENE 17:24:59 10° SSE
Cosmos 2221 Rocket 3.6 17:15:35 10° S 17:19:58 61° E 17:24:26 10° NNE
YAOGAN 1 3.1 17:16:30 10° S 17:20:43 62° WSW 17:24:57 10° NNW
Okean 2 Rocket 3.2 17:18:11 10° NNW 17:22:36 79° W 17:26:58 10° S
NOAA 6 4.0 17:18:28 10° SSE 17:23:37 87° ENE 17:28:49 10° NNW
NOSS 3-3 (C) 3.8 17:19:27 10° SSW 17:24:33 57° SE 17:29:14 17° NE
Spot 4 Rocket 4.2 17:20:47 10° S 17:25:53 75° WSW 17:31:02 10° NNW
Okean 1 Rocket 3.1 17:21:40 10° NNW 17:26:06 84° W 17:30:28 10° S
YAOGAN 3 4.4 17:23:11 10° SSE 17:27:23 81° ENE 17:31:38 10° NNW
COSMOS 2428 3.3 17:23:08 10° NW 17:28:45 59° WSW 17:34:21 10° S
Terra 3.6 17:33:16 15° NE 17:33:16 15° NE 17:34:56 10° NNE
Sich 1 Rocket 3.8 17:27:35 10° NNW 17:32:09 78° W 17:36:42 10° S
Cosmos 1980 3.6 17:26:56 10° NNW 17:32:39 78° ENE 17:38:17 10° SE
Aureole 3 Rocket 2.7 17:33:14 10° N 17:37:42 85° W 17:41:06 10° S
Cosmos 158 Rocket 4.3 17:33:19 10° SW 17:38:07 60° WNW 17:42:57 10° NNE
Cosmos 2237 Rocket 2.1 17:32:33 10° NNW 17:38:16 79° ENE 17:43:57 10° SSE
ATLAS 5 CENTAUR R/B 4.0 17:36:15 10° WNW 17:39:51 24° WSW 17:44:03 10° S
CZ-4B R/B 4.2 17:39:53 40° E 17:40:13 41° ENE 17:43:55 10° N
Resurs 01 Rocket 1.6 17:36:36 10° SSE 17:41:00 82° WSW 17:45:26 10° NNW
Cosmos 44 Rocket 4.4 17:39:18 10° S 17:42:41 26° SE 17:42:41 26° SE
Cosmos 773 Rocket 4.4 17:38:51 10° S 17:43:40 38° ESE 17:44:57 33° ENE
ARIANE 6 FM1 Upper Stage 3.9 17:40:40 10° NNW 17:43:59 25° NNE 17:44:13 24° NNE
COSMO-SKYMED 1 3.0 17:42:27 10° N 17:46:31 60° WNW 17:50:34 10° SSW
Cosmos 2228 3.0 17:44:51 10° N 17:48:55 49° ENE 17:49:16 48° E
Cosmos 2150 Rocket 4.0 17:46:33 10° NNW 17:51:40 57° ENE 17:53:31 36° ESE
Cosmos 2298 Rocket 4.1 17:47:07 10° NNW 17:52:20 55° ENE 17:54:11 37° ESE
NOSS 3-3 (A) 3.7 17:48:08 10° SW 17:53:24 88° NW 17:57:36 22° NE
USA 306 4.2 17:53:45 10° W 17:55:03 16° WSW 17:55:03 16° WSW
Cosmos 1782 4.5 17:54:00 10° N 17:55:10 18° N 17:55:10 18° N
Cosmos 1025 Rocket 4.1 17:55:08 10° SSW 17:59:15 44° WNW 18:03:26 10° N
Cosmos 2285 Rocket 4.4 17:53:25 10° NNW 17:59:48 65° WSW 18:06:06 10° S
SL-16 R/B 2.6 17:56:24 10° NNW 18:01:47 42° NE 18:02:27 40° ENE
Cosmos 2227 Rocket 3.0 17:59:56 10° S 18:03:35 32° SE 18:03:35 32° SE
SJ-6B 3.2 18:05:12 15° S 18:07:53 52° W 18:11:16 10° NNW
SPOT 5 2.8 18:08:21 49° SE 18:09:32 68° ENE 18:14:34 10° N
NOSS 3-4 (A) 3.7 18:04:12 10° NW 18:10:52 88° SW 18:15:11 29° SE
NOSS 3-4 (C) 3.7 18:04:28 10° NW 18:11:08 89° SW 18:15:23 30° SE
Cosmos 1816 Rocket 4.4 18:09:46 10° S 18:15:47 62° E 18:21:55 10° NNE
Cosmos 2034 Rocket 3.9 18:10:00 10° N 18:16:07 62° ENE 18:18:04 42° SE
Cosmos 1072 Rocket 4.4 18:11:38 10° N 18:17:56 85° W 18:24:07 10° S
Okean O Rocket 4.1 18:24:52 11° N 18:24:52 11° N 18:25:06 10° N
CZ-4 R/B 3.1 18:28:09 21° N 18:28:09 21° N 18:29:30 10° NNW
CZ-4B R/B 3.5 18:26:46 49° NE 18:26:46 49° NE 18:31:06 10° N
Cosmos 1634 Rocket 4.5 18:20:19 10° N 18:25:26 42° NE 18:25:26 42° NE
ATLAS 2AS CENTAUR R/B 4.1 18:22:25 10° WNW 18:28:14 28° N 18:31:15 21° NNE
Lacrosse 5 rocket 2.6 18:25:47 10° W 18:28:21 31° NW 18:28:21 31° NW
CZ-4B DEB 4.0 18:29:56 64° SE 18:30:48 81° ENE 18:36:18 10° NNW
ADEOS 3.9 18:32:00 50° NNE 18:32:00 50° NNE 18:36:09 10° N
Meteor 1-31 Rocket 4.5 18:32:59 24° NNW 18:32:59 24° NNW 18:34:34 10° NNW
CZ-4C R/B 2.8 18:29:53 10° WSW 18:34:16 46° NNW 18:36:09 33° NNE
DMSP 5D-2 F-14 4.5 18:34:37 77° ENE 18:34:37 77° ENE 18:40:03 10° NNW
Feng Yun 1-1 Rocket 4.2 18:36:42 66° SE 18:37:33 82° ENE 18:43:28 10° NNW
USA 267 3.7 18:41:48 42° NE 18:43:30 52° N 18:49:48 10° WNW
Cosmos 1464 Rocket 4.5 18:39:43 10° NNW 18:46:00 60° W 18:52:10 10° S
CSL-04 Debris 4.4 18:44:38 40° S 18:46:31 66° WSW 18:51:57 10° NNW
ERS-1 Rocket 3.9 18:48:49 38° N 18:48:49 38° N 18:51:54 10° N
CSL-04 Rocket 4.1 18:47:26 35° SSW 18:49:29 57° WSW 18:54:43 10° NNW
Cosmos 2297 Rocket 2.8 18:44:27 10° SW 18:50:00 55° NW 18:52:37 30° N
Cosmos 2344 3.7 18:44:47 10° SSW 18:51:12 51° SSE 18:51:12 51° SSE
Cosmos 1943 4.3 18:47:56 10° NNW 18:51:36 33° N 18:51:36 33° N
DNEPR-1 R/B 4.3 18:49:40 10° NW 18:54:13 62° WSW 18:54:13 62° WSW
PAYLOAD B 4.5 19:05:27 66° W 19:05:27 66° W 19:11:01 10° NNW
Terra 3.7 19:11:53 23° NNW 19:11:53 23° NNW 19:13:39 10° NNW
Cosmos 2237 Rocket 4.5 19:17:37 10° NW 19:21:39 20° W 19:25:42 10° SW
SL-16 R/B 3.6 19:40:37 10° NW 19:44:19 34° WNW 19:44:19 34° WNW
Cosmos 2227 Rocket 4.2 19:43:37 10° SW 19:45:30 21° WSW 19:45:30 21° WSW
ATLAS 2AS CENTAUR R/B 4.3 20:14:56 10° NW 20:18:40 27° NNW 20:18:40 27° NNW
